Satellite: LO-19
Catalog number: 20442
Epoch time:      05131.67519536
Element set:     389
Inclination:      098.2239 deg
RA of node:       167.5899 deg
Eccentricity:    0.0011170
Arg of perigee:   314.5332 deg
Mean anomaly:     045.4937 deg
Mean motion:   14.31918635 rev/day
Decay rate:        1.7e-07 rev/day^2
Epoch rev:           79899
Checksum:              337

Satellite: UO-22
Catalog number: 21575
Epoch time:      05132.68375928
Element set:     402
Inclination:      098.2420 deg
RA of node:       099.3600 deg
Eccentricity:    0.0007248
Arg of perigee:   188.4849 deg
Mean anomaly:     171.6197 deg
Mean motion:   14.39482368 rev/day
Decay rate:        1.5e-07 rev/day^2
Epoch rev:           72539
Checksum:              327

Satellite: KO-23
Catalog number: 22077
Epoch time:      05132.53560275
Element set:     467
Inclination:      066.0872 deg
RA of node:       221.1136 deg
Eccentricity:    0.0015746
Arg of perigee:   264.9369 deg
Mean anomaly:     094.9845 deg
Mean motion:   12.86429926 rev/day
Decay rate:       -3.7e-07 rev/day^2
Epoch rev:           59900
Checksum:              324

Satellite: AO-27
Catalog number: 22825
Epoch time:      05132.69941485
Element set:     134
Inclination:      098.2499 deg
RA of node:       130.0789 deg
Eccentricity:    0.0008542
Arg of perigee:   015.7022 deg
Mean anomaly:     344.4411 deg
Mean motion:   14.29126777 rev/day
Decay rate:       -7.4e-07 rev/day^2
Epoch rev:           60615
Checksum:              306

Satellite: IO-26
Catalog number: 22826
Epoch time:      05131.54698740
Element set:    0799
Inclination:      098.2446 deg
RA of node:       130.2751 deg
Eccentricity:    0.0009420
Arg of perigee:   017.0818 deg
Mean anomaly:     343.0632 deg
Mean motion:   14.29366652 rev/day
Decay rate:      -1.91e-06 rev/day^2
Epoch rev:           60605
Checksum:              302

Satellite: KO-25
Catalog number: 22828
Epoch time:      05132.53208256
Element set:      46
Inclination:      098.2433 deg
RA of node:       131.4105 deg
Eccentricity:    0.0010493
Arg of perigee:   349.7161 deg
Mean anomaly:     010.3811 deg
Mean motion:   14.29680608 rev/day
Decay rate:        2.4e-07 rev/day^2
Epoch rev:           57442
Checksum:              270

Satellite: TO-31
Catalog number: 25396
Epoch time:      05131.86402943
Element set:    0246
Inclination:      098.5306 deg
RA of node:       200.2004 deg
Eccentricity:    0.0001558
Arg of perigee:   288.3251 deg
Mean anomaly:     071.7669 deg
Mean motion:   14.23667683 rev/day
Decay rate:       -4.3e-07 rev/day^2
Epoch rev:           35524
Checksum:              294

Satellite: GO-32
Catalog number: 25397
Epoch time:      05130.87869850
Element set:    0740
Inclination:      098.5217 deg
RA of node:       196.8341 deg
Eccentricity:    0.0000425
Arg of perigee:   004.8108 deg
Mean anomaly:     355.3087 deg
Mean motion:   14.23076326 rev/day
Decay rate:      -1.17e-06 rev/day^2
Epoch rev:           35502
Checksum:              298

Satellite: UO-36
Catalog number: 25693
Epoch time:      05132.76037589
Element set:     185
Inclination:      064.5600 deg
RA of node:       032.5076 deg
Eccentricity:    0.0028662
Arg of perigee:   216.6813 deg
Mean anomaly:     143.2291 deg
Mean motion:   14.78498740 rev/day
Decay rate:       -2.8e-07 rev/day^2
Epoch rev:           32658
Checksum:              319

Satellite: SO-41
Catalog number: 26545
Epoch time:      05132.70630593
Element set:      72
Inclination:      064.5590 deg
RA of node:       047.1823 deg
Eccentricity:    0.0045832
Arg of perigee:   311.7224 deg
Mean anomaly:     047.9957 deg
Mean motion:   14.80085128 rev/day
Decay rate:       4.21e-06 rev/day^2
Epoch rev:           24967
Checksum:              299

Satellite: MO-46
Catalog number: 26548
Epoch time:      05131.76816699
Element set:    0178
Inclination:      064.5592 deg
RA of node:       033.0949 deg
Eccentricity:    0.0042966
Arg of perigee:   303.4964 deg
Mean anomaly:     056.2029 deg
Mean motion:   14.82707757 rev/day
Decay rate:       7.39e-06 rev/day^2
Epoch rev:           24989
Checksum:              361

Satellite: SO-42
Catalog number: 26549
Epoch time:      05131.79029531
Element set:    0136
Inclination:      064.5581 deg
RA of node:       058.4270 deg
Eccentricity:    0.0046865
Arg of perigee:   316.7198 deg
Mean anomaly:     043.0179 deg
Mean motion:   14.78963363 rev/day
Decay rate:       3.79e-06 rev/day^2
Epoch rev:           24937
Checksum:              335

Satellite: NO-44
Catalog number: 26931
Epoch time:      05131.72405033
Element set:    0040
Inclination:      067.0536 deg
RA of node:       321.7054 deg
Eccentricity:    0.0006438
Arg of perigee:   256.3286 deg
Mean anomaly:     103.7044 deg
Mean motion:   14.29379722 rev/day
Decay rate:       -3.6e-07 rev/day^2
Epoch rev:           18855
Checksum:              282

Satellite: AO-49
Catalog number: 27605
Epoch time:      05132.52894872
Element set:     733
Inclination:      064.5587 deg
RA of node:       243.7464 deg
Eccentricity:    0.0083551
Arg of perigee:   247.1034 deg
Mean anomaly:     112.1198 deg
Mean motion:   14.72081900 rev/day
Decay rate:       2.95e-06 rev/day^2
Epoch rev:           12860
Checksum:              308

Satellite: SO-50
Catalog number: 27607
Epoch time:      05131.73204021
Element set:    0717
Inclination:      064.5592 deg
RA of node:       251.6114 deg
Eccentricity:    0.0084102
Arg of perigee:   246.3353 deg
Mean anomaly:     112.8905 deg
Mean motion:   14.70951314 rev/day
Decay rate:       6.31e-06 rev/day^2
Epoch rev:           12837
Checksum:              265

